Location: Betra
(48.4113°N, 8.6634°E)
Time: 05:58:57
(UTC+00:00)

Cosmos 1850 Rocket - Visible Passes

Search period start: 12 July 2025 00:00
Search period end: 22 July 2025 00:00
Orbit: 751 x 781 km, 74.0° (Epoch: 11 July)

Date Brightness Start Highest point End Pass type
(mag) Time Alt. Az. Time Alt. Az. Time Alt. Az.
12 Jul 7.2 21:13:56 10° WNW 21:16:31 14° NW 21:19:07 10° NNW visible
13 Jul 7.7 02:29:52 10° NNE 02:32:02 12° NE 02:34:11 10° ENE visible
13 Jul 7.0 20:34:34 10° W 20:38:19 20° NW 20:42:06 10° N visible
14 Jul 6.4 19:55:45 10° WSW 20:00:14 29° NW 20:04:47 10° N visible
15 Jul 6.8 02:55:03 10° N 02:59:21 25° NE 03:03:39 10° ESE visible
16 Jul 7.2 02:17:49 10° N 02:21:13 17° NE 02:24:37 10° E visible
16 Jul 7.4 20:24:37 10° WNW 20:27:27 15° NW 20:30:18 10° N visible
17 Jul 7.5 01:41:06 10° NNE 01:42:58 12° NE 01:44:50 10° ENE visible
18 Jul 6.0 02:43:32 10° N 02:48:21 34° ENE 02:53:10 10° ESE visible
19 Jul 6.7 02:06:08 10° N 02:10:19 23° NE 02:14:30 10° ESE visible
19 Jul 7.7 20:15:34 10° NW 20:16:41 11° NW 20:17:48 10° NNW visible
20 Jul 7.0 01:28:56 10° N 01:32:10 16° NE 01:35:24 10° E visible
21 Jul 7.3 00:52:24 10° NNE 00:53:54 11° NE 00:55:24 10° NE visible
21 Jul 5.1 02:32:08 10° NNW 02:37:17 49° ENE 02:42:25 10° SE visible
